Home > Time Zones > World Clock > Weather > Yemen > Sana > Past weeks

Flag for Yemen Weather past 2 weeks in Sana, Yemen

Now
72 °F

Passing clouds.


Feels Like: 73 °F
Forecast: 39 / 78 °F
Wind: 14 mph from Northeast

Location: Sana'A Airport

Current Time: Mar 1, 2015 at 7:11:24 PM

Latest Report: Mar 1, 2015 at 6:00 PM


Visibility: N/A

Pressure: 30.27 "Hg

Humidity: 14%

Dew point: 19 °F

Location of SanaLocation

Historic Weather in Sana — Graph

°F

Sana temperature yesterday

Maximum temperature yesterday: 75 °F (at 1:00 PM)
Minimum temperature yesterday: 45 °F (at 6:00 AM)
Average temperature yesterday: 61 °F

Past Weeks' High & Low Weather Summary

 TemperatureHumidityPressure
High82 °F (Feb 22, 3:00 PM)82% (Feb 22, 6:00 AM)30.39 "Hg (Feb 22, 6:00 AM)
Low45 °F (Feb 28, 6:00 AM)6% (Feb 17, 1:00 PM)30.15 "Hg (Feb 19, 3:00 PM)
Average64 °F29%30.27 "Hg
* Reported Feb 14 6:00 PM — Mar 1 6:00 PM, Sana, Weather by CustomWeather, © 2015

Note: Actual official high and low records may vary slightly from our data, if they occured in-between our weather recording intervals... More about our weather records

Advertising

Sana weather history for previous 24 hours

 ConditionsComfort  
Time TempWeatherWind HumidityBarometerVisibility
6:00 PM
Sun, Mar 1
72 °FPassing clouds.14 mph14%30.27 "HgN/A
5:00 PM73 °FPassing clouds.14 mph13%30.24 "HgN/A
4:00 PM75 °FPassing clouds.14 mph10%30.24 "HgN/A
3:00 PM77 °FPassing clouds.13 mph9%30.24 "HgN/A
2:00 PM77 °FPassing clouds.14 mph7%30.27 "HgN/A
1:00 PM75 °FPassing clouds.12 mph8%30.27 "HgN/A
12:00 PM73 °FSunny.10 mph10%30.30 "Hg10 mi
11:00 AM70 °FClear.7 mph10%30.33 "Hg5 mi
10:00 AM66 °FClear.2 mph22%30.36 "Hg5 mi
9:00 AM63 °FClear.2 mph20%30.33 "Hg4 mi
4:00 AM46 °FClear.No wind34%30.27 "Hg10 mi
3:00 AM50 °FClear.No wind30%30.27 "Hg10 mi
2:00 AM52 °FClear.2 mph30%30.30 "Hg10 mi
1:00 AM55 °FClear.3 mph28%30.30 "Hg10 mi
12:00 AM55 °FClear.No wind24%30.33 "Hg10 mi
11:00 PM
Sat, Feb 28
55 °FClear.No wind24%30.33 "Hg10 mi
10:00 PM59 °FClear.3 mph23%30.33 "Hg5 mi
9:00 PM61 °FClear.2 mph25%30.33 "Hg5 mi
8:00 PM63 °FClear.5 mph22%30.30 "Hg5 mi
7:00 PM66 °FPassing clouds.9 mph21%30.27 "HgN/A
Weather by CustomWeather, © 2015

See weather overviewHow to use our weather pages